time, Switch, Flow(0), Analog(2)
yyyy/mm/dd HH:MM:SS.fff, True=FILTERED|False=TOTAL, L/min, V
2023/06/13 06:00:02.219, True, 4.634, 0.144274
2023/06/13 06:00:02.715, True, 4.381, 0.148699
2023/06/13 06:00:03.219, True, 4.642, 0.143816
2023/06/13 06:00:03.723, True, 3.983, 0.144656
2023/06/13 06:00:04.219, True, 2.692, 0.143969
2023/06/13 06:00:04.722, True, 1.658, 0.144350
2023/06/13 06:00:05.227, True, 0.995, 0.144121
2023/06/13 06:00:05.723, True, 0.674, 0.144732
2023/06/13 06:00:06.227, True, 0.663, 0.142519
2023/06/13 06:00:06.731, True, 0.332, 0.144121
2023/06/13 06:00:07.227, True, 0.674, 0.142519
2023/06/13 06:00:07.731, True, 0.664, 0.144656
2023/06/13 06:00:08.235, True, 0.331, 0.146868
2023/06/13 06:00:08.731, True, 0.674, 0.141680
2023/06/13 06:00:09.235, True, 0.663, 0.144045
2023/06/13 06:00:09.739, True, 0.663, 0.145647
2023/06/13 06:00:10.235, True, 0.674, 0.145495
2023/06/13 06:00:10.739, True, 0.331, 0.143969
2023/06/13 06:00:11.243, True, 0.663, 0.147097
2023/06/13 06:00:11.739, True, 0.674, 0.145571
2023/06/13 06:00:12.243, True, 0.332, 0.144579
2023/06/13 06:00:12.747, True, 0.664, 0.143969
2023/06/13 06:00:13.243, True, 0.673, 0.144121
2023/06/13 06:00:13.747, True, 0.332, 0.145418
2023/06/13 06:00:14.251, True, 0.663, 0.141909
2023/06/13 06:00:14.755, True, 0.332, 0.146105
2023/06/13 06:00:15.251, True, 0.674, 0.142596
2023/06/13 06:00:15.755, True, 0.663, 0.144884
2023/06/13 06:00:16.259, True, 0.663, 0.145037
2023/06/13 06:00:16.755, True, 0.674, 0.143282
2023/06/13 06:00:17.259, True, 0.331, 0.146487
2023/06/13 06:00:17.763, True, 0.663, 0.146181
2023/06/13 06:00:18.259, True, 0.674, 0.146563
2023/06/13 06:00:18.763, True, 0.332, 0.142596
2023/06/13 06:00:19.267, True, 0.663, 0.144198
2023/06/13 06:00:19.762, True, 0.675, 0.142443
2023/06/13 06:00:20.267, True, 0.331, 0.144350
2023/06/13 06:00:20.771, True, 0.663, 0.145037
2023/06/13 06:00:21.267, True, 0.674, 0.143435
2023/06/13 06:00:21.771, True, 0.332, 0.145495
2023/06/13 06:00:22.267, True, 0.675, 0.144579
2023/06/13 06:00:22.771, True, 0.662, 0.144350
2023/06/13 06:00:23.275, True, 0.332, 0.144427
2023/06/13 06:00:23.771, True, 0.674, 0.146715
2023/06/13 06:00:24.275, True, 0.663, 0.143282
2023/06/13 06:00:24.779, True, 0.332, 0.145037
2023/06/13 06:00:25.275, True, 0.674, 0.145724
2023/06/13 06:00:25.778, True, 0.332, 0.145418
2023/06/13 06:00:26.283, True, 0.663, 0.145953
2023/06/13 06:00:26.787, True, 0.663, 0.143816
2023/06/13 06:00:27.282, True, 0.337, 0.145495
2023/06/13 06:00:27.787, True, 0.663, 0.142443
2023/06/13 06:00:28.291, True, 0.663, 0.146181
2023/06/13 06:00:28.787, True, 0.337, 0.144961
2023/06/13 06:00:29.291, True, 0.663, 0.144732
2023/06/13 06:00:29.795, True, 0.663, 0.144427
2023/06/13 06:00:30.291, True, 0.674, 0.146181
2023/06/13 06:00:30.795, True, 0.332, 0.144274
2023/06/13 06:00:31.299, True, 0.663, 0.144427
2023/06/13 06:00:31.795, True, 0.674, 0.143969
2023/06/13 06:00:32.299, True, 0.332, 0.144656
2023/06/13 06:00:32.803, True, 0.663, 0.145647
2023/06/13 06:00:33.299, True, 0.674, 0.145800
2023/06/13 06:00:33.803, True, 0.332, 0.146334
2023/06/13 06:00:34.307, True, 0.663, 0.146715
2023/06/13 06:00:34.803, True, 0.674, 0.145190
2023/06/13 06:00:35.307, True, 0.332, 0.145113
2023/06/13 06:00:35.811, True, 0.663, 0.145113
2023/06/13 06:00:36.307, True, 0.674, 0.146105
2023/06/13 06:00:36.811, True, 0.663, 0.144961
2023/06/13 06:00:37.315, True, 0.332, 0.145800
2023/06/13 06:00:37.811, True, 0.674, 0.145800
2023/06/13 06:00:38.315, True, 0.332, 0.142977
2023/06/13 06:00:38.819, True, 0.663, 0.144732
2023/06/13 06:00:39.323, True, 0.663, 0.144503
2023/06/13 06:00:39.819, True, 0.337, 0.142138
2023/06/13 06:00:40.323, True, 0.663, 0.144732
2023/06/13 06:00:40.827, True, 0.663, 0.145647
2023/06/13 06:00:41.331, True, 0.332, 0.145342
2023/06/13 06:00:41.827, True, 0.674, 0.145724
2023/06/13 06:00:42.331, True, 0.663, 0.144274
2023/06/13 06:00:42.835, True, 0.332, 0.146334
2023/06/13 06:00:43.331, True, 0.674, 0.143816
2023/06/13 06:00:43.835, True, 0.663, 0.142596
2023/06/13 06:00:44.339, True, 0.332, 0.144656
2023/06/13 06:00:44.835, True, 0.674, 0.145876
2023/06/13 06:00:45.339, True, 0.663, 0.144503
2023/06/13 06:00:45.842, True, 0.332, 0.143969
2023/06/13 06:00:46.347, True, 0.664, 0.146410
2023/06/13 06:00:46.843, True, 0.673, 0.143969
2023/06/13 06:00:47.347, True, 0.332, 0.143587
2023/06/13 06:00:47.851, True, 0.664, 0.145113
2023/06/13 06:00:48.346, True, 0.673, 0.146944
2023/06/13 06:00:48.851, True, 0.332, 0.143435
2023/06/13 06:00:49.355, True, 0.663, 0.144045
2023/06/13 06:00:49.850, True, 0.674, 0.146105
2023/06/13 06:00:50.355, True, 0.331, 0.146715
2023/06/13 06:00:50.858, True, 0.664, 0.146029
2023/06/13 06:00:51.355, True, 0.336, 0.144198
2023/06/13 06:00:51.859, True, 0.663, 0.146258
2023/06/13 06:00:52.363, True, 0.663, 0.145495
2023/06/13 06:00:52.859, True, 0.337, 0.145495
2023/06/13 06:00:53.363, True, 0.663, 0.144121
2023/06/13 06:00:53.867, True, 0.663, 0.144732
2023/06/13 06:00:54.363, True, 0.337, 0.142824
2023/06/13 06:00:54.867, True, 0.663, 0.144656
2023/06/13 06:00:55.371, True, 0.663, 0.145342
2023/06/13 06:00:55.867, True, 0.337, 0.143282
2023/06/13 06:00:56.371, True, 0.663, 0.146029
2023/06/13 06:00:56.875, True, 0.663, 0.144884
2023/06/13 06:00:57.379, True, 0.332, 0.145724
2023/06/13 06:00:57.875, True, 0.674, 0.144656
2023/06/13 06:00:58.379, True, 0.664, 0.143664
2023/06/13 06:00:58.883, True, 0.331, 0.143587
2023/06/13 06:00:59.379, True, 0.674, 0.143511
2023/06/13 06:00:59.882, True, 0.663, 0.143969
2023/06/13 06:01:00.387, True, 0.332, 0.145266
2023/06/13 06:01:00.883, True, 0.674, 0.144503
2023/06/13 06:01:01.387, True, 0.332, 0.144884
2023/06/13 06:01:01.891, True, 0.663, 0.144121
2023/06/13 06:01:02.387, True, 0.337, 0.144808
2023/06/13 06:01:02.891, True, 0.663, 0.143587
2023/06/13 06:01:03.387, True, 0.674, 0.144503
2023/06/13 06:01:03.891, True, 0.332, 0.143893
2023/06/13 06:01:04.394, True, 0.662, 0.144808
2023/06/13 06:01:04.899, True, 0.332, 0.142138
2023/06/13 06:01:05.395, True, 0.674, 0.143740
2023/06/13 06:01:05.899, True, 0.332, 0.146334
2023/06/13 06:01:06.403, True, 0.663, 0.143435
2023/06/13 06:01:06.899, True, 0.337, 0.149310
2023/06/13 06:01:07.403, True, 0.663, 0.145495
2023/06/13 06:01:07.907, True, 0.663, 0.144427
2023/06/13 06:01:08.411, True, 0.332, 0.142367
2023/06/13 06:01:08.906, True, 0.673, 0.144121
2023/06/13 06:01:09.411, True, 0.663, 0.142748
2023/06/13 06:01:09.914, True, 0.332, 0.147555
2023/06/13 06:01:10.411, True, 0.674, 0.144045
2023/06/13 06:01:10.915, True, 0.664, 0.143740
2023/06/13 06:01:11.419, True, 0.331, 0.142290
2023/06/13 06:01:11.914, True, 0.674, 0.144198
2023/06/13 06:01:12.419, True, 0.332, 0.143816
2023/06/13 06:01:12.923, True, 0.665, 0.144884
2023/06/13 06:01:13.418, True, 0.672, 0.145495
2023/06/13 06:01:13.922, True, 0.332, 0.145495
2023/06/13 06:01:14.427, True, 0.662, 0.145266
2023/06/13 06:01:14.931, True, 0.663, 0.144732
2023/06/13 06:01:15.427, True, 0.337, 0.145266
2023/06/13 06:01:15.931, True, 0.663, 0.143664
2023/06/13 06:01:16.435, True, 0.332, 0.145800
2023/06/13 06:01:16.930, True, 0.674, 0.145647
2023/06/13 06:01:17.435, True, 0.663, 0.142672
2023/06/13 06:01:17.939, True, 0.332, 0.145113
2023/06/13 06:01:18.434, True, 0.674, 0.143969
2023/06/13 06:01:18.939, True, 0.332, 0.143740
2023/06/13 06:01:19.435, True, 0.674, 0.144503
2023/06/13 06:01:19.939, True, 0.664, 0.145342
2023/06/13 06:01:20.442, True, 0.331, 0.145342
2023/06/13 06:01:20.947, True, 0.664, 0.145342
2023/06/13 06:01:21.442, True, 0.674, 0.145342
2023/06/13 06:01:21.946, True, 0.332, 0.145876
2023/06/13 06:01:22.450, True, 0.663, 0.146792
2023/06/13 06:01:22.946, True, 0.337, 0.144274
2023/06/13 06:01:23.451, True, 0.663, 0.143740
2023/06/13 06:01:23.955, True, 0.663, 0.143816
2023/06/13 06:01:24.450, True, 0.337, 0.143740
2023/06/13 06:01:24.954, True, 0.664, 0.143206
2023/06/13 06:01:25.459, True, 0.331, 0.144350
2023/06/13 06:01:25.955, True, 0.674, 0.145037
2023/06/13 06:01:26.458, True, 0.664, 0.146029
2023/06/13 06:01:26.962, True, 0.331, 0.147097
2023/06/13 06:01:27.459, True, 0.673, 0.145571
2023/06/13 06:01:27.963, True, 0.332, 0.146334
2023/06/13 06:01:28.467, True, 0.663, 0.146410
2023/06/13 06:01:28.962, True, 0.674, 0.145724
2023/06/13 06:01:29.467, True, 0.332, 0.144961
2023/06/13 06:01:29.971, True, 0.663, 0.141833
2023/06/13 06:01:30.467, True, 0.337, 0.146181
2023/06/13 06:01:30.971, True, 0.662, 0.146105
2023/06/13 06:01:31.475, True, 0.663, 0.145113
2023/06/13 06:01:31.971, True, 0.337, 0.145953
2023/06/13 06:01:32.475, True, 0.663, 0.146792
2023/06/13 06:01:32.971, True, 0.674, 0.144579
2023/06/13 06:01:33.475, True, 0.332, 0.144656
2023/06/13 06:01:33.979, True, 0.663, 0.145800
2023/06/13 06:01:34.475, True, 0.337, 0.145342
2023/06/13 06:01:34.979, True, 0.662, 0.145876
2023/06/13 06:01:35.483, True, 0.332, 0.148089
2023/06/13 06:01:35.979, True, 0.674, 0.144884
2023/06/13 06:01:36.483, True, 0.663, 0.145800
2023/06/13 06:01:36.987, True, 0.332, 0.148318
2023/06/13 06:01:37.482, True, 0.673, 0.144350
2023/06/13 06:01:37.987, True, 0.332, 0.144808
2023/06/13 06:01:38.491, True, 0.662, 0.146410
2023/06/13 06:01:38.995, True, 0.663, 0.147173
2023/06/13 06:01:39.490, True, 0.337, 0.145190
2023/06/13 06:01:39.995, True, 0.663, 0.148165
2023/06/13 06:01:40.491, True, 0.337, 0.146868
2023/06/13 06:01:40.995, True, 0.663, 0.146563
2023/06/13 06:01:41.499, True, 0.663, 0.146334
2023/06/13 06:01:41.995, True, 0.337, 0.147021
2023/06/13 06:01:42.499, True, 0.664, 0.145190
2023/06/13 06:01:43.003, True, 0.332, 0.147173
2023/06/13 06:01:43.499, True, 0.673, 0.147326
2023/06/13 06:01:44.003, True, 0.663, 0.148241
2023/06/13 06:01:44.507, True, 0.332, 0.148547
2023/06/13 06:01:45.002, True, 0.675, 0.147402
2023/06/13 06:01:45.506, True, 0.331, 0.147402
2023/06/13 06:01:46.010, True, 0.663, 0.150683
2023/06/13 06:01:46.515, True, 0.663, 0.145037
2023/06/13 06:01:47.011, True, 0.337, 0.147021
2023/06/13 06:01:47.515, True, 0.663, 0.148089
2023/06/13 06:01:48.011, True, 0.337, 0.148318
2023/06/13 06:01:48.515, True, 0.663, 0.147021
2023/06/13 06:01:49.019, True, 0.663, 0.147707
2023/06/13 06:01:49.515, True, 0.337, 0.150835
2023/06/13 06:01:50.019, True, 0.663, 0.149538
2023/06/13 06:01:50.523, True, 0.332, 0.150301
2023/06/13 06:01:51.026, True, 0.663, 0.147173
2023/06/13 06:01:51.523, True, 0.337, 0.149767
2023/06/13 06:01:52.027, True, 0.664, 0.149004
2023/06/13 06:01:52.531, True, 0.662, 0.149920
2023/06/13 06:01:53.027, True, 0.337, 0.149310
2023/06/13 06:01:53.531, True, 0.662, 0.148547
2023/06/13 06:01:54.035, True, 0.332, 0.149844
2023/06/13 06:01:54.531, True, 0.674, 0.148775
2023/06/13 06:01:55.035, True, 0.332, 0.150988
2023/06/13 06:01:55.539, True, 0.662, 0.150835
2023/06/13 06:01:56.035, True, 0.337, 0.150912
2023/06/13 06:01:56.539, True, 0.663, 0.151827
2023/06/13 06:01:57.035, True, 0.337, 0.149310
2023/06/13 06:01:57.539, True, 0.663, 0.150759
2023/06/13 06:01:58.043, True, 0.663, 0.151217
2023/06/13 06:01:58.547, True, 0.332, 0.149920
2023/06/13 06:01:59.043, True, 0.674, 0.152132
2023/06/13 06:01:59.547, True, 0.332, 0.154726
2023/06/13 06:02:00.051, True, 0.664, 0.152361
2023/06/13 06:02:00.547, True, 0.336, 0.153506
2023/06/13 06:02:01.051, True, 0.663, 0.153964
2023/06/13 06:02:01.555, True, 0.663, 0.153353
2023/06/13 06:02:02.059, True, 0.332, 0.153658
2023/06/13 06:02:02.554, True, 0.673, 0.153735
2023/06/13 06:02:03.059, True, 0.332, 0.153582
2023/06/13 06:02:03.555, True, 0.674, 0.153811
2023/06/13 06:02:04.059, True, 0.332, 0.154879
2023/06/13 06:02:04.563, True, 0.663, 0.152895
2023/06/13 06:02:05.067, True, 0.663, 0.152132
2023/06/13 06:02:05.563, True, 0.337, 0.153201
2023/06/13 06:02:06.067, True, 0.663, 0.154116
2023/06/13 06:02:06.571, True, 0.332, 0.155947
2023/06/13 06:02:07.067, True, 0.674, 0.154498
2023/06/13 06:02:07.571, True, 0.663, 0.154421
2023/06/13 06:02:08.075, True, 0.332, 0.153887
2023/06/13 06:02:08.571, True, 0.674, 0.154726
2023/06/13 06:02:09.075, True, 0.332, 0.151598
2023/06/13 06:02:09.579, True, 0.663, 0.153506
2023/06/13 06:02:10.075, True, 0.674, 0.153582
2023/06/13 06:02:10.579, True, 0.332, 0.154879
2023/06/13 06:02:11.082, True, 0.664, 0.152514
2023/06/13 06:02:11.579, True, 0.337, 0.153353
2023/06/13 06:02:12.083, True, 0.664, 0.152209
2023/06/13 06:02:12.587, True, 0.331, 0.153429
2023/06/13 06:02:13.083, True, 0.674, 0.152590
2023/06/13 06:02:13.587, True, 0.332, 0.153201
2023/06/13 06:02:14.091, True, 0.662, 0.151980
2023/06/13 06:02:14.587, True, 0.337, 0.154421
2023/06/13 06:02:15.090, True, 0.663, 0.153124
2023/06/13 06:02:15.595, True, 0.332, 0.153506
2023/06/13 06:02:16.091, True, 0.673, 0.154040
2023/06/13 06:02:16.595, True, 0.332, 0.152361
2023/06/13 06:02:17.099, True, 0.662, 0.152895
2023/06/13 06:02:17.595, True, 0.674, 0.150683
2023/06/13 06:02:18.099, True, 0.332, 0.151904
2023/06/13 06:02:18.603, True, 0.663, 0.155489
2023/06/13 06:02:19.099, True, 0.337, 0.152819
2023/06/13 06:02:19.603, True, 0.663, 0.154803
2023/06/13 06:02:20.107, True, 0.332, 0.154040
2023/06/13 06:02:20.603, True, 0.673, 0.156100
2023/06/13 06:02:21.107, True, 0.332, 0.154955
2023/06/13 06:02:21.611, True, 0.662, 0.155108
2023/06/13 06:02:22.107, True, 0.337, 0.152438
2023/06/13 06:02:22.611, True, 0.663, 0.151904
2023/06/13 06:02:23.115, True, 0.332, 0.152972
2023/06/13 06:02:23.619, True, 0.663, 0.154803
2023/06/13 06:02:24.115, True, 0.337, 0.154879
2023/06/13 06:02:24.618, True, 0.663, 0.151446
2023/06/13 06:02:25.123, True, 0.332, 0.155032
2023/06/13 06:02:25.619, True, 0.674, 0.151827
2023/06/13 06:02:26.123, True, 0.663, 0.154574
2023/06/13 06:02:26.627, True, 0.332, 0.154421
2023/06/13 06:02:27.123, True, 0.674, 0.154879
2023/06/13 06:02:27.627, True, 0.332, 0.151217
2023/06/13 06:02:28.131, True, 0.663, 0.153277
2023/06/13 06:02:28.635, True, 0.663, 0.153811
2023/06/13 06:02:29.130, True, 0.337, 0.154269
2023/06/13 06:02:29.635, True, 0.663, 0.154803
2023/06/13 06:02:30.139, True, 0.332, 0.152743
2023/06/13 06:02:30.643, True, 0.663, 0.153735
2023/06/13 06:02:31.139, True, 0.337, 0.155261
2023/06/13 06:02:31.643, True, 0.663, 0.154955
2023/06/13 06:02:32.147, True, 0.663, 0.152285
2023/06/13 06:02:32.651, True, 0.332, 0.151217
2023/06/13 06:02:33.146, True, 0.674, 0.154803
2023/06/13 06:02:33.650, True, 0.332, 0.154650
2023/06/13 06:02:34.155, True, 0.663, 0.153048
2023/06/13 06:02:34.651, True, 0.337, 0.153735
2023/06/13 06:02:35.154, True, 0.663, 0.155871
2023/06/13 06:02:35.659, True, 0.332, 0.153277
2023/06/13 06:02:36.154, True, 0.674, 0.155947
2023/06/13 06:02:36.658, True, 0.663, 0.154574
2023/06/13 06:02:37.162, True, 0.332, 0.153964
2023/06/13 06:02:37.659, True, 0.674, 0.155489
2023/06/13 06:02:38.162, True, 0.332, 0.153277
2023/06/13 06:02:38.666, True, 0.663, 0.156023
2023/06/13 06:02:39.162, True, 0.337, 0.155489
2023/06/13 06:02:39.667, True, 0.663, 0.153582
2023/06/13 06:02:40.170, True, 0.663, 0.153658
2023/06/13 06:02:40.666, True, 0.337, 0.154421
2023/06/13 06:02:41.171, True, 0.663, 0.155489
2023/06/13 06:02:41.666, True, 0.337, 0.156939
2023/06/13 06:02:42.170, True, 0.663, 0.156710
2023/06/13 06:02:42.674, True, 0.332, 0.156329
2023/06/13 06:02:43.171, True, 0.674, 0.154192
2023/06/13 06:02:43.674, True, 0.332, 0.157397
2023/06/13 06:02:44.178, True, 0.663, 0.156252
2023/06/13 06:02:44.675, True, 0.675, 0.155642
2023/06/13 06:02:45.178, True, 0.331, 0.158236
2023/06/13 06:02:45.682, True, 0.662, 0.156100
2023/06/13 06:02:46.178, True, 0.337, 0.157168
2023/06/13 06:02:46.682, True, 0.664, 0.156710
2023/06/13 06:02:47.187, True, 0.332, 0.154192
2023/06/13 06:02:47.682, True, 0.673, 0.154879
2023/06/13 06:02:48.187, True, 0.332, 0.158083
2023/06/13 06:02:48.690, True, 0.663, 0.155947
2023/06/13 06:02:49.186, True, 0.337, 0.154498
2023/06/13 06:02:49.691, True, 0.663, 0.156329
2023/06/13 06:02:50.195, True, 0.663, 0.157168
2023/06/13 06:02:50.691, True, 0.336, 0.157015
2023/06/13 06:02:51.195, True, 0.663, 0.157321
2023/06/13 06:02:51.699, True, 0.332, 0.158465
2023/06/13 06:02:52.202, True, 0.663, 0.155184
2023/06/13 06:02:52.699, True, 0.336, 0.156634
2023/06/13 06:02:53.203, True, 0.663, 0.156100
2023/06/13 06:02:53.707, True, 0.332, 0.155489
2023/06/13 06:02:54.203, True, 0.674, 0.154726
2023/06/13 06:02:54.707, True, 0.332, 0.155489
2023/06/13 06:02:55.211, True, 0.663, 0.156405
2023/06/13 06:02:55.707, True, 0.337, 0.154955
2023/06/13 06:02:56.211, True, 0.663, 0.154421
2023/06/13 06:02:56.715, True, 0.663, 0.153353
2023/06/13 06:02:57.211, True, 0.337, 0.155566
2023/06/13 06:02:57.715, True, 0.664, 0.155947
2023/06/13 06:02:58.219, True, 0.331, 0.154650
2023/06/13 06:02:58.715, True, 0.674, 0.156176
2023/06/13 06:02:59.218, True, 0.332, 0.154803
2023/06/13 06:02:59.723, True, 0.663, 0.156023
2023/06/13 06:03:00.219, True, 0.337, 0.156176
2023/06/13 06:03:00.723, True, 0.663, 0.155489
2023/06/13 06:03:01.219, True, 0.337, 0.156100
2023/06/13 06:03:01.723, True, 0.664, 0.155413
2023/06/13 06:03:02.227, True, 0.663, 0.156023
2023/06/13 06:03:02.722, True, 0.337, 0.156252
2023/06/13 06:03:03.227, True, 0.663, 0.155871
2023/06/13 06:03:03.731, True, 0.332, 0.155795
2023/06/13 06:03:04.227, True, 0.674, 0.155108
2023/06/13 06:03:04.731, True, 0.332, 0.153964
2023/06/13 06:03:05.235, True, 0.663, 0.156710
2023/06/13 06:03:05.731, True, 0.337, 0.156863
2023/06/13 06:03:06.235, True, 0.664, 0.155184
2023/06/13 06:03:06.739, True, 0.331, 0.155413
2023/06/13 06:03:07.235, True, 0.674, 0.158236
2023/06/13 06:03:07.739, True, 0.332, 0.156252
2023/06/13 06:03:08.243, True, 0.663, 0.155413
2023/06/13 06:03:08.739, True, 0.338, 0.156786
2023/06/13 06:03:09.243, True, 0.662, 0.155566
2023/06/13 06:03:09.747, True, 0.332, 0.156023
2023/06/13 06:03:10.243, True, 0.674, 0.155795
2023/06/13 06:03:10.747, True, 0.332, 0.155871
2023/06/13 06:03:11.251, True, 0.663, 0.154726
2023/06/13 06:03:11.747, True, 0.337, 0.157778
2023/06/13 06:03:12.251, True, 0.331, 0.156329
2023/06/13 06:03:12.754, True, 0.663, 0.155032
2023/06/13 06:03:13.259, True, 0.663, 0.154803
2023/06/13 06:03:13.755, True, 0.337, 0.156023
2023/06/13 06:03:14.259, True, 0.663, 0.155413
2023/06/13 06:03:14.762, True, 0.332, 0.153964
2023/06/13 06:03:15.259, True, 0.674, 0.154192
2023/06/13 06:03:15.762, True, 0.332, 0.157397
2023/06/13 06:03:16.267, True, 0.663, 0.154955
2023/06/13 06:03:16.762, True, 0.337, 0.156786
2023/06/13 06:03:17.267, True, 0.663, 0.157855
2023/06/13 06:03:17.771, True, 0.332, 0.156252
2023/06/13 06:03:18.267, True, 0.675, 0.155261
2023/06/13 06:03:18.771, True, 0.331, 0.154803
2023/06/13 06:03:19.267, True, 0.674, 0.155642
2023/06/13 06:03:19.771, True, 0.663, 0.155566
2023/06/13 06:03:20.275, True, 0.332, 0.156786
2023/06/13 06:03:20.771, True, 0.674, 0.154803
2023/06/13 06:03:21.275, True, 0.332, 0.153811
2023/06/13 06:03:21.779, True, 0.663, 0.154574
2023/06/13 06:03:22.274, True, 0.337, 0.156405
2023/06/13 06:03:22.779, True, 0.663, 0.156558
2023/06/13 06:03:23.282, True, 0.332, 0.155947
2023/06/13 06:03:23.786, True, 0.664, 0.155947
2023/06/13 06:03:24.283, True, 0.337, 0.154955
2023/06/13 06:03:24.787, True, 0.663, 0.156939
2023/06/13 06:03:25.283, True, 0.337, 0.156100
2023/06/13 06:03:25.787, True, 0.663, 0.156023
2023/06/13 06:03:26.291, True, 0.332, 0.156558
2023/06/13 06:03:26.787, True, 0.675, 0.157626
2023/06/13 06:03:27.291, True, 0.331, 0.157092
2023/06/13 06:03:27.795, True, 0.663, 0.158618
2023/06/13 06:03:28.291, True, 0.337, 0.154955
2023/06/13 06:03:28.795, True, 0.663, 0.156634
2023/06/13 06:03:29.299, True, 0.663, 0.154192
2023/06/13 06:03:29.795, True, 0.337, 0.154192
2023/06/13 06:03:30.299, True, 0.663, 0.156481
2023/06/13 06:03:30.803, True, 0.332, 0.156786
2023/06/13 06:03:31.299, True, 0.674, 0.157015
2023/06/13 06:03:31.802, True, 0.331, 0.155871
2023/06/13 06:03:32.306, True, 0.663, 0.155413
2023/06/13 06:03:32.802, True, 0.674, 0.153124
2023/06/13 06:03:33.306, True, 0.332, 0.158389
2023/06/13 06:03:33.802, True, 0.674, 0.155032
2023/06/13 06:03:34.307, True, 0.332, 0.156176
2023/06/13 06:03:34.810, True, 0.663, 0.155947
2023/06/13 06:03:35.306, True, 0.337, 0.154650
2023/06/13 06:03:35.810, True, 0.663, 0.156023
2023/06/13 06:03:36.315, True, 0.332, 0.156481
2023/06/13 06:03:36.810, True, 0.674, 0.154498
2023/06/13 06:03:37.315, True, 0.332, 0.158999
2023/06/13 06:03:37.818, True, 0.332, 0.156939
2023/06/13 06:03:38.323, True, 0.663, 0.160754
2023/06/13 06:03:38.819, True, 0.337, 0.155108
2023/06/13 06:03:39.322, True, 0.664, 0.157626
2023/06/13 06:03:39.826, True, 0.662, 0.156710
2023/06/13 06:03:40.322, True, 0.337, 0.157626
2023/06/13 06:03:40.826, True, 0.664, 0.156558
2023/06/13 06:03:41.322, True, 0.337, 0.157702
2023/06/13 06:03:41.826, True, 0.664, 0.155642
2023/06/13 06:03:42.331, True, 0.331, 0.156252
2023/06/13 06:03:42.826, True, 0.675, 0.157092
2023/06/13 06:03:43.330, True, 0.663, 0.155642
2023/06/13 06:03:43.834, True, 0.332, 0.156786
2023/06/13 06:03:44.331, True, 0.674, 0.155947
2023/06/13 06:03:44.835, True, 0.332, 0.158007
2023/06/13 06:03:45.339, True, 0.663, 0.157015
2023/06/13 06:03:45.843, True, 0.332, 0.155261
2023/06/13 06:03:46.338, True, 0.336, 0.156023
2023/06/13 06:03:46.842, True, 0.663, 0.155871
2023/06/13 06:03:47.346, True, 0.332, 0.155108
2023/06/13 06:03:47.842, True, 0.674, 0.158007
2023/06/13 06:03:48.346, True, 0.664, 0.156939
2023/06/13 06:03:48.850, True, 0.331, 0.156558
2023/06/13 06:03:49.346, True, 0.675, 0.156863
2023/06/13 06:03:49.850, True, 0.331, 0.155184
2023/06/13 06:03:50.354, True, 0.663, 0.156939
2023/06/13 06:03:50.859, True, 0.332, 0.155947
2023/06/13 06:03:51.354, True, 0.337, 0.154498
2023/06/13 06:03:51.858, True, 0.663, 0.156023
2023/06/13 06:03:52.363, True, 0.332, 0.156863
2023/06/13 06:03:52.858, True, 0.674, 0.154574
2023/06/13 06:03:53.363, True, 0.331, 0.156176
2023/06/13 06:03:53.859, True, 0.674, 0.157015
2023/06/13 06:03:54.362, True, 0.332, 0.155795
2023/06/13 06:03:54.866, True, 0.663, 0.157092
2023/06/13 06:03:55.370, True, 0.663, 0.155489
2023/06/13 06:03:55.867, True, 0.337, 0.158694
2023/06/13 06:03:56.370, True, 0.663, 0.156558
2023/06/13 06:03:56.866, True, 0.337, 0.156558
2023/06/13 06:03:57.370, True, 0.332, 0.154269
2023/06/13 06:03:57.875, True, 0.663, 0.155489
2023/06/13 06:03:58.378, True, 0.332, 0.156405
2023/06/13 06:03:58.874, True, 0.674, 0.155871
2023/06/13 06:03:59.378, True, 0.663, 0.156481
2023/06/13 06:03:59.882, True, 0.332, 0.154269
2023/06/13 06:04:00.378, True, 0.337, 0.156634
2023/06/13 06:04:00.882, True, 0.663, 0.156329
2023/06/13 06:04:01.386, True, 0.332, 0.155947
2023/06/13 06:04:01.882, True, 0.674, 0.155108
2023/06/13 06:04:02.386, True, 0.332, 0.156634
2023/06/13 06:04:02.882, True, 0.674, 0.155566
2023/06/13 06:04:03.386, True, 0.332, 0.157626
2023/06/13 06:04:03.890, True, 0.663, 0.159380
2023/06/13 06:04:04.386, True, 0.337, 0.156023
2023/06/13 06:04:04.890, True, 0.663, 0.156863
2023/06/13 06:04:05.395, True, 0.664, 0.154955
2023/06/13 06:04:05.890, True, 0.337, 0.154421
2023/06/13 06:04:06.394, True, 0.663, 0.156405
2023/06/13 06:04:06.898, True, 0.332, 0.155337
2023/06/13 06:04:07.394, True, 0.674, 0.155718
2023/06/13 06:04:07.898, True, 0.331, 0.157321
2023/06/13 06:04:08.402, True, 0.664, 0.155947
2023/06/13 06:04:08.898, True, 0.337, 0.156176
2023/06/13 06:04:09.402, True, 0.662, 0.155566
2023/06/13 06:04:09.906, True, 0.332, 0.155947
2023/06/13 06:04:10.402, True, 0.674, 0.157931
2023/06/13 06:04:10.906, True, 0.331, 0.156100
2023/06/13 06:04:11.410, True, 0.664, 0.156863